This demonstration page uses our WeatherBlox Daily Observations layout. Learn more.

Left ArrowRight Arrow

34.02893, -84.19858

Hourly Observations for April 24, 2019

Temp ( °F °C ) Dew Point ( °F °C ) Humidity (%) Winds ( mph kmh ) Pressure ( in mb ) Visibility ( mi km ) Precip ( " mm )
12:53 am 00:53 Clear 63 17.2 53 11.7 70 70 Calm 30.00 1016 10 16 0.00 0.00
1:53 am 01:53 Clear 62 16.7 54 12.2 75 75 WSW 5 7 29.99 1016 10 16 0.00 0.00
2:53 am 02:53 Clear 60 15.6 54 12.2 80 80 Calm 29.98 1015 10 16 0.00 0.00
3:53 am 03:53 Clear 59 15 54 12.2 83 83 W 3 6 29.98 1015 10 16 0.00 0.00
4:53 am 04:53 Clear 61 16.1 53 11.7 75 75 Calm 29.98 1015 10 16 0.00 0.00
5:53 am 05:53 Clear 58 14.4 53 11.7 84 84 Calm 29.98 1015 10 16 0.00 0.00
6:53 am 06:53 Clear 58 14.4 53 11.7 84 84 Calm 29.99 1016 10 16 0.00 0.00
7:53 am 07:53 Sunny 60 15.6 55 12.8 84 84 Calm 30.01 1016 10 16 0.00 0.00
8:53 am 08:53 Sunny 65 18.3 55 12.8 70 70 W 5 7 30.02 1017 10 16 0.00 0.00
9:53 am 09:53 Sunny 70 21.1 56 13.3 61 61 WNW 6 9 30.02 1017 10 16 0.00 0.00
10:53 am 10:53 Sunny 73 22.8 54 12.2 51 51 VRB 5 7 30.01 1016 10 16 0.00 0.00
11:53 am 11:53 Sunny 76 24.4 53 11.7 45 45 SW 7 11 30.01 1016 10 16 0.00 0.00
12:53 pm 12:53 Sunny 78 25.6 53 11.7 42 42 W 10 17 29.99 1016 10 16 0.00 0.00
1:53 pm 13:53 Sunny 79 26.1 52 11.1 39 39 SW 8 13 29.96 1015 10 16 0.00 0.00
2:53 pm 14:53 Sunny 81 27.2 52 11.1 37 37 SW 9 15 29.93 1014 10 16 0.00 0.00
3:53 pm 15:53 Sunny 81 27.2 51 10.6 35 35 SSW 13 20 29.91 1013 10 16 0.00 0.00
4:53 pm 16:53 Sunny 81 27.2 49 9.4 33 33 SSW 13 20 29.90 1013 10 16 0.00 0.00
5:53 pm 17:53 Sunny 80 26.7 45 7.2 29 29 SW 13 20 29.90 1013 10 16 0.00 0.00
6:53 pm 18:53 Sunny 79 26.1 47 8.3 32 32 WSW 13 20 29.89 1012 10 16 0.00 0.00
7:53 pm 19:53 Sunny 75 23.9 46 7.8 36 36 SW 10 17 29.90 1013 10 16 0.00 0.00
8:53 pm 20:53 Clear 70 21.1 48 8.9 46 46 S 3 6 29.91 1013 10 16 0.00 0.00
9:53 pm 21:53 Clear 68 20 47 8.3 47 47 S 5 7 29.92 1013 10 16 0.00 0.00
10:53 pm 22:53 Clear 66 18.9 48 8.9 52 52 SSW 5 7 29.92 1013 10 16 0.00 0.00
11:53 pm 23:53 Clear 67 19.4 50 10 55 55 SW 8 13 29.92 1013 10 16 0.00 0.00

Powered by AerisWeather